[[{"header":{"parameterUnit":"m.s-1","parameterCategory":1,"la1":30.2991,"la2":30.254,"lo1":-89.0895,"lo2":-89.0444,"dy":0.0017,"dx":0.0017,"nx":28,"ny":28,"refTime":"2023-11-05T09:00:00:Z","depth":0,"parameterNumber":2,"parameterNumberName":"U-component_of_WINDS"},"data":[0,0,0,0,0,0,0,0,0,0,0,0,0,0,0,0,0,0,0,0,0,0,0,0,0,0,0,0,0,0,0,0,0,0,0,0,0,0,0,0,0,0,0,0,0,0,0,0,0,0,0,0,0,0,0,0,0,0,0.0601,0.0601,0,0.0592,0.0592,0.0592,0.0597,0.0597,0.0598,0.0598,0.0588,0.0587,0.0587,0,0,0,0,0,0,0,0,0,0,0,0,0,0.0622,0.0622,0.0601,0.0601,0.0601,0.0592,0.0592,0.0592,0.0597,0.0597,0.0598,0.0598,0.0588,0.0587,0.0587,0,0,0,0,0,0,0,0,0,0,0,0,0,0.0613,0.0621,0.0601,0.0602,0.0602,0.0592,0.0592,0.0592,0.0597,0.0597,0.0598,0.0598,0.0588,0.0587,0.0587,0.0574,0,0,0.0584,0.0584,0,0,0,0,0,0,0,0,0.0613,0.0612,0.0602,0.0602,0.0602,0.0596,0.0596,0.0586,0.0597,0.0599,0.0598,0.0598,0.059,0.0589,0.0587,0.0574,0.0574,0.0584,0.0584,0.0584,0.0583,0,0,0,0,0,0,0,0.0614,0.0613,0.0597,0.0602,0.0602,0.0603,0.0602,0.0594,0.0593,0.0599,0.0599,0.0598,0.059,0.0588,0.0587,0.0573,0.0584,0.0584,0.0583,0.0583,0.0551,0.0551,0,0,0,0,0,0,0.0615,0.0613,0.0598,0.0597,0.0609,0.0603,0.0602,0.0598,0.0593,0.0592,0.0598,0.0598,0.0589,0.0587,0.0586,0.0572,0.0584,0.0583,0.0582,0.0552,0.0551,0.0551,0,0,0,0,0,0,0.0615,0.0613,0.0598,0.0605,0.0603,0.0602,0.0597,0.0597,0.0595,0.0592,0.0592,0.0595,0.0589,0.0587,0.0578,0.0572,0.0583,0.0582,0.0552,0.0551,0.0551,0.0544,0,0,0,0,0,0,0.0616,0.0613,0.0609,0.0605,0.0603,0.059,0.0597,0.0597,0.0593,0.0594,0.0589,0.0589,0.0589,0.0579,0.0577,0.0571,0.0581,0.0553,0.0552,0.0551,0.0545,0.0543,0.0542,0,0,0,0,0,0.0616,0.0607,0.0608,0.0606,0.0597,0.0589,0.0588,0.0589,0.0593,0.0588,0.0587,0.0589,0.0573,0.0578,0.0576,0.057,0.0553,0.0552,0.0551,0.0545,0.0543,0.0542,0,0,0,0,0,0,0.0609,0.0606,0.0608,0.0597,0.0593,0.059,0.0584,0.0586,0.0581,0.0582,0.0583,0.0582,0.0572,0.057,0.0575,0.0558,0.0564,0.0562,0.056,0.0558,0.0557,0.0557,0.0581,0,0,0,0,0,0.0606,0.06,0.0598,0.0588,0.0586,0.0586,0.0582,0.0583,0.0579,0.0578,0.0575,0.0571,0.0566,0.0562,0.0556,0.0544,0.0544,0.0539,0.0538,0.0537,0.0536,0.053,0.0528,0.0548,0.0548,0.0548,0,0,0.06,0.0597,0.0593,0.0587,0.0584,0.0578,0.0584,0.0577,0.0573,0.0576,0.0568,0.0566,0.0562,0.0551,0.0546,0.0549,0.053,0.0536,0.0535,0.0534,0.0529,0.0527,0.0526,0.0547,0.0547,0.0547,0,0,0.0585,0.0583,0.0575,0.0572,0.0569,0.0569,0.0567,0.0563,0.0563,0.0554,0.0557,0.0551,0.0541,0.0538,0.0535,0.0521,0.0524,0.0519,0.0512,0.0507,0.0505,0.0504,0.05,0.0498,0.0518,0.0518,0.0518,0,0.0578,0.0569,0.057,0.0564,0.0561,0.0565,0.0557,0.0554,0.0548,0.0546,0.055,0.0538,0.0535,0.0524,0.0521,0.0518,0.0517,0.052,0.0505,0.0504,0.0503,0.0499,0.0497,0.0518,0.0518,0.0518,0.0518,0,0.056,0.0554,0.0548,0.0544,0.054,0.0533,0.0533,0.0529,0.0531,0.053,0.0522,0.0519,0.0513,0.0511,0.0511,0.05,0.0502,0.0505,0.0511,0.0501,0.0497,0.0495,0.0517,0.0517,0.0517,0.0518,0,0,0.054,0.0537,0.0535,0.0534,0.053,0.0526,0.0519,0.0514,0.0511,0.0507,0.0501,0.0493,0.0497,0.0493,0.0494,0.0489,0.0479,0.0493,0.0493,0.0491,0.0468,0.0466,0.0464,0.0481,0.0481,0.048,0.0468,0,0.0526,0.0514,0.0516,0.0505,0.05,0.0504,0.0498,0.0495,0.0495,0.049,0.049,0.0484,0.0489,0.0487,0.0482,0.0482,0.0475,0.0482,0.0476,0.0476,0.0477,0.0462,0.0459,0.0448,0.0467,0.0466,0.0466,0,0.0508,0.0504,0.0493,0.0491,0.0489,0.0484,0.048,0.0476,0.0473,0.0473,0.047,0.0472,0.0465,0.0471,0.0463,0.0468,0.0466,0.0465,0.0464,0.0464,0.047,0.0461,0.0444,0.0442,0.0464,0.0464,0.0464,0,0.0495,0.0487,0.048,0.0478,0.0476,0.0472,0.0471,0.0469,0.0466,0.0463,0.0461,0.0457,0.0455,0.0451,0.0452,0.0456,0.0443,0.0449,0.0444,0.0444,0.0441,0.0441,0.0423,0.0439,0.0439,0.0439,0.0439,0,0.0479,0.0472,0.0474,0.0469,0.0462,0.0464,0.0456,0.0456,0.0454,0.0449,0.0452,0.0448,0.0449,0.0445,0.0446,0.0439,0.0438,0.0438,0.0438,0.0438,0.0438,0.0436,0.0437,0.0438,0.0438,0.0438,0.0438,0,0.0463,0.0464,0.0457,0.0456,0.0455,0.045,0.0449,0.0445,0.0445,0.0439,0.0438,0.0438,0.0434,0.0434,0.0429,0.0429,0.0421,0.0422,0.0422,0.0422,0.0417,0.0418,0.0398,0.0396,0.0412,0.0412,0.0412,0,0.0453,0.0448,0.0447,0.0444,0.0443,0.0439,0.0436,0.0438,0.0436,0.0433,0.0429,0.0425,0.0422,0.0414,0.0414,0.041,0.0411,0.0405,0.0411,0.0411,0.0412,0.0412,0.0412,0.0403,0.0403,0.0403,0.0403,0,0.0435,0.0436,0.0433,0.043,0.0427,0.0425,0.0422,0.042,0.0422,0.0419,0.0414,0.0412,0.0407,0.0403,0.04,0.0399,0.0401,0.0401,0.04,0.0399,0.04,0.04,0.0419,0.0402,0.0402,0.0402,0.0402,0.0402,0.0422,0.0418,0.0417,0.0413,0.0412,0.041,0.0407,0.0407,0.0404,0.04,0.0401,0.0397,0.0395,0.0391,0.039,0.0386,0.0388,0.0386,0.0386,0.0385,0.0385,0.04,0.0385,0.0385,0.0385,0.0385,0.0385,0,0.0405,0.0405,0.0401,0.0399,0.0396,0.0399,0.0397,0.0395,0.0391,0.0389,0.0386,0.0382,0.0378,0.0378,0.0375,0.0372,0.0373,0.0371,0.0371,0.0371,0.0382,0.0384,0.037,0.037,0.037,0.037,0.037,0.037,0.0396,0.0389,0.0391,0.0384,0.0384,0.0379,0.0378,0.0377,0.0376,0.037,0.0368,0.0368,0.0367,0.0364,0.0361,0.0361,0.036,0.0357,0.0358,0.0369,0.037,0.0372,0.0373,0.0357,0.0357,0.0347,0.0347,0.0347]},{"header":{"parameterUnit":"m.s-1","parameterCategory":1,"la1":30.2991,"la2":30.254,"lo1":-89.0895,"lo2":-89.0444,"dy":0.0017,"dx":0.0017,"nx":28,"ny":28,"refTime":"2023-11-05T09:00:00:Z","depth":0,"parameterNumber":3,"parameterNumberName":"V-component_of_WINDS"},"data":[0,0,0,0,0,0,0,0,0,0,0,0,0,0,0,0,0,0,0,0,0,0,0,0,0,0,0,0,0,0,0,0,0,0,0,0,0,0,0,0,0,0,0,0,0,0,0,0,0,0,0,0,0,0,0,0,0,0,-1.3871,-1.3872,0,-1.3935,-1.3936,-1.3936,-1.3958,-1.3958,-1.3958,-1.3958,-1.4021,-1.4023,-1.4025,0,0,0,0,0,0,0,0,0,0,0,0,0,-1.3768,-1.377,-1.3871,-1.3872,-1.3873,-1.3935,-1.3936,-1.3936,-1.3958,-1.3958,-1.3958,-1.3958,-1.4021,-1.4023,-1.4025,0,0,0,0,0,0,0,0,0,0,0,0,0,-1.382,-1.377,-1.3871,-1.3891,-1.3894,-1.3935,-1.3936,-1.3937,-1.3958,-1.3958,-1.3958,-1.3957,-1.402,-1.4023,-1.4025,-1.405,0,0,-1.4034,-1.4035,0,0,0,0,0,0,0,0,-1.3817,-1.3824,-1.3888,-1.389,-1.3893,-1.3938,-1.3923,-1.3975,-1.3959,-1.3934,-1.3958,-1.3957,-1.3994,-1.3999,-1.4011,-1.4053,-1.4056,-1.4034,-1.4036,-1.4037,-1.4038,0,0,0,0,0,0,0,-1.3814,-1.3821,-1.3896,-1.3888,-1.3892,-1.3897,-1.3904,-1.3932,-1.3965,-1.3936,-1.3938,-1.3945,-1.3995,-1.4009,-1.4013,-1.4057,-1.4034,-1.4037,-1.4039,-1.404,-1.4122,-1.4123,0,0,0,0,0,0,-1.3807,-1.3818,-1.3894,-1.3898,-1.3853,-1.3899,-1.3907,-1.3924,-1.3965,-1.3971,-1.3945,-1.3946,-1.4004,-1.401,-1.4015,-1.4047,-1.4037,-1.404,-1.4042,-1.4122,-1.4122,-1.4123,0,0,0,0,0,0,-1.3805,-1.3813,-1.3892,-1.3859,-1.3869,-1.3901,-1.392,-1.3926,-1.3939,-1.3972,-1.3978,-1.3953,-1.4004,-1.4011,-1.4042,-1.405,-1.4041,-1.4044,-1.4121,-1.4122,-1.4122,-1.411,0,0,0,0,0,0,-1.3801,-1.3812,-1.3822,-1.3859,-1.3871,-1.3917,-1.3921,-1.3927,-1.3944,-1.3945,-1.3981,-1.3986,-1.4004,-1.4037,-1.4044,-1.4053,-1.4046,-1.4121,-1.4121,-1.4122,-1.411,-1.4111,-1.4111,0,0,0,0,0,-1.3798,-1.3816,-1.3823,-1.3832,-1.3884,-1.3918,-1.3924,-1.3945,-1.3945,-1.3955,-1.3976,-1.3985,-1.4048,-1.404,-1.4048,-1.4058,-1.412,-1.4121,-1.4122,-1.411,-1.4111,-1.4111,0,0,0,0,0,0,-1.3779,-1.3821,-1.3829,-1.386,-1.3885,-1.3921,-1.3935,-1.3945,-1.397,-1.397,-1.3995,-1.4002,-1.4031,-1.4048,-1.4038,-1.4084,-1.4084,-1.4087,-1.4072,-1.4073,-1.4073,-1.4068,-1.4049,0,0,0,0,0,-1.3779,-1.3803,-1.3838,-1.3862,-1.3875,-1.3902,-1.3918,-1.3932,-1.3958,-1.3969,-1.3992,-1.4017,-1.4043,-1.4059,-1.4084,-1.4113,-1.4121,-1.4124,-1.4124,-1.4124,-1.4126,-1.4143,-1.4144,-1.4126,-1.4126,-1.4126,0,0,-1.3778,-1.3804,-1.3818,-1.3859,-1.388,-1.3904,-1.3911,-1.3936,-1.3954,-1.3973,-1.4003,-1.4021,-1.405,-1.408,-1.4094,-1.4095,-1.4133,-1.4126,-1.4126,-1.4128,-1.4144,-1.4146,-1.4147,-1.4127,-1.4127,-1.4127,0,0,-1.379,-1.3812,-1.3834,-1.3855,-1.3887,-1.3906,-1.3911,-1.3946,-1.3958,-1.3989,-1.4003,-1.4025,-1.4068,-1.4088,-1.4105,-1.4124,-1.4133,-1.4131,-1.4133,-1.4148,-1.415,-1.4151,-1.4158,-1.416,-1.4133,-1.4133,-1.4133,0,-1.3785,-1.3822,-1.3844,-1.3869,-1.3886,-1.3905,-1.3927,-1.3946,-1.3985,-1.3996,-1.3997,-1.4051,-1.4073,-1.4107,-1.4112,-1.4124,-1.4131,-1.4127,-1.4148,-1.4149,-1.4151,-1.4157,-1.416,-1.4133,-1.4133,-1.4133,-1.4133,0,-1.3814,-1.3839,-1.3853,-1.389,-1.391,-1.3933,-1.3959,-1.3975,-1.3988,-1.4006,-1.4037,-1.4063,-1.4094,-1.4103,-1.4115,-1.4139,-1.4139,-1.4143,-1.4144,-1.4152,-1.4158,-1.4161,-1.4132,-1.4132,-1.4132,-1.4132,0,0,-1.3815,-1.3864,-1.3869,-1.3886,-1.3922,-1.3942,-1.3966,-1.3997,-1.4011,-1.4037,-1.4057,-1.4093,-1.4098,-1.4116,-1.4131,-1.4144,-1.4157,-1.4147,-1.4148,-1.4148,-1.4185,-1.4181,-1.4184,-1.4164,-1.4165,-1.4165,-1.4183,0,-1.383,-1.3874,-1.3895,-1.393,-1.3954,-1.3972,-1.3993,-1.4017,-1.4035,-1.4057,-1.4077,-1.4102,-1.4106,-1.4117,-1.4132,-1.4153,-1.4165,-1.4152,-1.4183,-1.4184,-1.4174,-1.4187,-1.4183,-1.4199,-1.4185,-1.4186,-1.4186,0,-1.3854,-1.388,-1.3917,-1.3951,-1.3962,-1.398,-1.401,-1.4032,-1.406,-1.4072,-1.4092,-1.4106,-1.4132,-1.4131,-1.4166,-1.4156,-1.417,-1.4183,-1.4184,-1.4187,-1.4185,-1.419,-1.4204,-1.4206,-1.419,-1.419,-1.419,0,-1.385,-1.3895,-1.3923,-1.3937,-1.3977,-1.399,-1.4007,-1.4035,-1.4052,-1.4078,-1.4089,-1.4117,-1.4133,-1.4154,-1.4175,-1.4173,-1.4209,-1.4209,-1.4219,-1.4218,-1.4225,-1.4224,-1.4241,-1.4235,-1.4235,-1.4235,-1.4235,0,-1.3865,-1.3887,-1.3922,-1.3939,-1.3964,-1.3988,-1.4012,-1.403,-1.4055,-1.4076,-1.4093,-1.4112,-1.4139,-1.4162,-1.4179,-1.4205,-1.4212,-1.4222,-1.4226,-1.422,-1.4219,-1.4229,-1.4229,-1.4235,-1.4235,-1.4235,-1.4235,0,-1.3865,-1.3889,-1.3921,-1.3957,-1.3966,-1.3983,-1.4014,-1.4031,-1.405,-1.4076,-1.4083,-1.4112,-1.414,-1.4163,-1.4199,-1.421,-1.4238,-1.4243,-1.4228,-1.423,-1.4238,-1.4237,-1.4261,-1.4266,-1.4257,-1.4257,-1.4257,0,-1.3873,-1.389,-1.3928,-1.3943,-1.396,-1.3985,-1.4002,-1.4027,-1.4044,-1.4078,-1.4091,-1.4119,-1.4143,-1.4186,-1.421,-1.4238,-1.4243,-1.425,-1.4248,-1.4241,-1.4243,-1.4242,-1.4243,-1.425,-1.425,-1.425,-1.425,0,-1.3883,-1.3895,-1.3919,-1.3949,-1.3969,-1.3993,-1.4018,-1.4029,-1.4058,-1.4077,-1.4105,-1.4124,-1.4161,-1.4189,-1.4219,-1.4236,-1.4248,-1.4251,-1.4254,-1.4248,-1.4239,-1.4244,-1.4228,-1.425,-1.425,-1.425,-1.425,-1.425,-1.3887,-1.3903,-1.3933,-1.396,-1.3981,-1.4003,-1.4021,-1.4042,-1.4067,-1.4099,-1.4111,-1.414,-1.4168,-1.421,-1.4227,-1.425,-1.4252,-1.4257,-1.4258,-1.4259,-1.4258,-1.4236,-1.4255,-1.4255,-1.4256,-1.4256,-1.4256,0,-1.3899,-1.3918,-1.3943,-1.3977,-1.3998,-1.4008,-1.4035,-1.4052,-1.4078,-1.4103,-1.4126,-1.4159,-1.4186,-1.4213,-1.4241,-1.4254,-1.426,-1.4261,-1.426,-1.4264,-1.4255,-1.4249,-1.4256,-1.4256,-1.4256,-1.4256,-1.4256,-1.4256,-1.3907,-1.3935,-1.3949,-1.3988,-1.4007,-1.4036,-1.4051,-1.4072,-1.4092,-1.4128,-1.4151,-1.4168,-1.4194,-1.4224,-1.425,-1.4257,-1.4266,-1.4265,-1.4274,-1.4265,-1.4264,-1.4264,-1.4258,-1.4267,-1.4267,-1.4281,-1.4281,-1.4281]}]]